Skip Page Navigation
NASA JPL Caltech
NASA Logo - Jet Propulsion Laboratory + View the NASA Portal
+ Near-Earth Object (NEO) Program
Search JPL
JPL Home Earth Solar System Stars & Galaxies Technology
JPL Solar System Dynamics
BODIES ORBITS EPHEMERIDES TOOLS PHYSICAL DATA DISCOVERY FAQ SITE MAP
JPL Small-Body Database Browser
Search: [ help ]  
3057 Malaren (1981 EG)
Classification: Main-belt Asteroid          SPK-ID: 2003057
Ephemeris | Orbit Diagram | Orbital Elements | Physical Parameters | Discovery Circumstances ]

[ show orbit diagram ]
Orbital Elements at Epoch 2457000.5 (2014-Dec-09.0) TDB
Reference: JPL 9 (heliocentric ecliptic J2000)
 Element Value Uncertainty (1-sigma)   Units 
e .07486286162225636 7.6271e-08  
a 2.260874073391675 1.407e-08 AU
q 2.091618570490007 1.7027e-07 AU
i 7.277912613321588 6.8856e-06 deg
node 75.35143604340784 5.2381e-05 deg
peri 122.2294169184967 6.5781e-05 deg
M 299.6711737994735 4.1777e-05 deg
tp 2457208.582406537005
(2015-Jul-05.08240654)
0.00014465 JED
period 1241.689438881676
3.40
1.1591e-05
3.173e-08
d
yr
n .2899275686231438 2.7064e-09 deg/d
Q 2.430129576293343 1.5123e-08 AU
  Orbit Determination Parameters
   # obs. used (total)      1018  
   data-arc span      22593 days (61.86 yr)  
   first obs. used      1952-11-16  
   last obs. used      2014-09-25  
   planetary ephem.      DE431  
   SB-pert. ephem.      SB431-BIG16  
   condition code      0  
   fit RMS      .52909  
   data source      ORB  
   producer      Otto Matic  
   solution date      2014-Oct-09 13:56:29  

Additional Information
 Earth MOID = 1.0993 AU 
 T_jup = 3.606 
[ show covariance matrix ]

Ephemeris | Orbit Diagram | Orbital Elements | Physical Parameters | Discovery Circumstances ]

Physical Parameter Table
Parameter Symbol Value Units Sigma Reference Notes
absolute magnitude H 13.4 mag n/a MPO272651  

3057 Malaren (1981 EG)          Discovered 1981-Mar-09 by Bowell, E. at Flagstaff (AM) (688)
Discovered at the Anderson Mesa station, which is operated by the Lowell Observatory.
Reference: DISCOVERY.DBLast Updated: 2003-08-29

Alternate Designations
 1981 EG = 1976 YH4 
Ephemeris | Orbit Diagram | Orbital Elements | Physical Parameters | Discovery Circumstances ]
ABOUT SSD CREDITS/AWARDS PRIVACY/COPYRIGHT GLOSSARY LINKS
FirstGov 2014-Oct-21 12:02 UT
(server date/time)  
NASA Home Page
Site Manager:   Donald K. Yeomans
Webmaster  Alan B. Chamberlin